Location: Shenandoah County Park
(38.9356°N, 78.4524°W)
Time: 06:26:49
(UTC-05:00)

N. Korean satellite - Pass Details

Date: 09 December 2021
Orbit: 446 x 491 km, 97.3° (Epoch: 19 January)

Event Time Altitude Azimuth Distance (km) Brightness Sun altitude
Rises 05:14:11 0° 16° (NNE) 2,454 10.2 -23.9°
Reaches altitude 10° 05:16:15 10° 21° (NNE) 1,578 9.2 -23.5°
Maximum altitude 05:19:34 55° 100° (E) 542 7.0 -22.9°
Drops below altitude 10° 05:22:48 11° 179° (S) 1,540 9.2 -22.3°
Sets 05:24:56 0° 184° (S) 2,446 10.2 -21.9°
